Printer-friendly version

IAU Minor Planet Center

Minor Planet Center

MPEC 2006-A39 : 2006 AU3

The following Minor Planet Electronic Circular may be linked-to from your own Web pages, but must not otherwise be redistributed electronically.


Read MPEC 2006-A38 Read MPEC 2006-A40


M.P.E.C. 2006-A39                                Issued 2006 Jan. 8, 17:13 UT

     The Minor Planet Electronic Circulars contain information on unusual
         minor planets and routine data on comets.  They are published
   on behalf of Commission 20 of the International Astronomical Union by the
          Minor Planet Center, Smithsonian Astrophysical Observatory,
                          Cambridge, MA 02138, U.S.A.

                  Supported in part by the Brinson Foundation
                  Supported in part by the TABASGO Foundation
             Prepared using the Tamkin Foundation Computer Network

                              MPC@CFA.HARVARD.EDU
          URL http://cfa-www.harvard.edu/iau/mpc.html  ISSN 1523-6714

                                   2006 AU3

Observations:
     K06A03U* C2006 01 07.40054 09 28 17.68 +02 12 08.6          18.6 V EA039G96
     K06A03U  C2006 01 07.40127 09 28 20.24 +02 12 03.7          18.4 V EA039G96
     K06A03U  C2006 01 07.40163 09 28 21.43 +02 12 01.6          19.2 V EA039G96
     K06A03U  C2006 01 07.46712 09 32 06.57 +02 04 46.3          18.4 V EA039G96
     K06A03U  C2006 01 07.46737 09 32 07.40 +02 04 44.6          19.0 V EA039G96
     K06A03U  C2006 01 07.46762 09 32 08.23 +02 04 43.0          19.1 V EA039G96
     K06A03U  C2006 01 07.46787 09 32 09.09 +02 04 41.3          18.9 V EA039G96
     K06A03U  C2006 01 07.53790 09 36 08.82 +01 56 56.9          19.0 V EA039G96
     K06A03U  C2006 01 07.53817 09 36 09.72 +01 56 55.2          18.3 V EA039G96
     K06A03U  C2006 01 07.53842 09 36 10.65 +01 56 53.7          18.6 V EA039G96
     K06A03U  C2006 01 07.53867 09 36 11.48 +01 56 51.8          19.1 V EA039G96
     K06A03U  C2006 01 07.55930 09 37 22.21 +01 54 35.1          18.6 V EA039G96
     K06A03U  C2006 01 07.55954 09 37 23.04 +01 54 33.9          18.6 V EA039G96
     K06A03U  C2006 01 07.55980 09 37 23.78 +01 54 32.3          19.1 V EA039G96
     K06A03U  C2006 01 08.35674 10 21 12.06 +00 33 45.6          19.5 V EA039G96
     K06A03U  C2006 01 08.35698 10 21 12.70 +00 33 44.3          19.5 V EA039G96
     K06A03U  C2006 01 08.35724 10 21 13.42 +00 33 43.2          18.6 V EA039G96
     K06A03U 5C2006 01 08.37610 10 22 08.58 +00 31 44.3          18.4 R EA039673
     K06A03U 5C2006 01 08.38090 10 22 21.75 +00 31 18.4                 EA039673
     K06A03U 5C2006 01 08.39012 10 22 47.13 +00 30 26.3                 EA039673
     K06A03U 5C2006 01 08.39653 10 23 05.01 +00 29 51.0                 EA039673
     K06A03U 5C2006 01 08.40031 10 23 15.23 +00 29 29.9                 EA039673
     K06A03U 5C2006 01 08.40677 10 23 32.84 +00 28 54.2                 EA039673
     K06A03U  C2006 01 08.47524 10 26 34.23 +00 22 55.9          19.1 V EA039G96
     K06A03U  C2006 01 08.47970 10 26 46.17 +00 22 31.8          19.4 V EA039G96
     K06A03U  C2006 01 08.48417 10 26 58.11 +00 22 07.6          20.1 V EA039G96
     K06A03U  C2006 01 08.48872 10 27 10.25 +00 21 43.2          19.3 V EA039G96
     K06A03U  C2006 01 08.54836 10 29 48.73 +00 16 24.0          20.3 V EA039G96
     K06A03U  C2006 01 08.54862 10 29 49.45 +00 16 23.1          19.1 V EA039G96
     K06A03U  C2006 01 08.54886 10 29 50.06 +00 16 21.5          18.9 V EA039G96

Observer details:
673 Table Mountain Observatory, Wrightwood.  Observer J. Young.  0.6-m f/16
    Cassegrain + CCD.
G96 Mt. Lemmon Survey.  Observer E. J. Christensen.  Measurers E. C. Beshore,
    E. J. Christensen, G. J. Garradd, A. D. Grauer, R. E. Hill, R. A. Kowalski,
    S. M. Larson, R. H. McNaught.  1.5-m reflector + CCD.

Orbital elements:
2006 AU3                                                 Earth MOID = 0.0087 AU
Epoch 2006 Jan. 5.0 TT = JDT 2453740.5                  MPC
M 357.63695              (2000.0)            P               Q
n   0.28578648     Peri.  359.93905     -0.41755864     -0.90837406
a   2.2826619      Node   114.74148     +0.83368049     -0.39279238
e   0.5652971      Incl.    1.41272     +0.36141614     -0.14342495
P   3.45           H   26.3           G   0.15
From 29 observations 2006 Jan. 7-8.

Ephemeris:
2006 AU3                 a,e,i = 2.28, 0.57, 1                   q = 0.9923
Date    TT    R. A. (2000) Decl.     Delta      r     Elong.  Phase     V
2006 01 05    06 52.17   +06 10.8    0.0154   0.998   163.3    16.4    18.1
2006 01 15    12 48.68   -03 47.3    0.0395   0.993   101.9    75.8    21.9
2006 01 25    13 31.09   -04 42.5    0.0792   1.004   101.9    73.6    23.4
2006 02 04    13 41.87   -04 39.7    0.118    1.031   109.5    64.3    24.0

Gareth V. Williams           (C) Copyright 2006 MPC           M.P.E.C. 2006-A39

Read MPEC 2006-A38 Read MPEC 2006-A40


Our Web policy. Index to the CBAT/MPC/ICQ pages.


Valid HTML 4.01!